| time (UTC) | temp F | wind direction | speed MPH | gust MPH | rain 1hr in | rain 24hr in | rain mn in | humidity % | barometer mb |
| 20260510103037 | 43 | 193 | 0.0 | 0.0 | 0.00 | 0.00 | 0.00 | 87 | 1016.9 |
| 20260510101537 | 43 | 194 | 0.0 | 2.0 | 0.00 | 0.00 | 0.00 | 87 | 1016.9 |
| 20260510100035 | 44 | 193 | 0.0 | 1.0 | 0.00 | 0.00 | 0.00 | 85 | 1016.8 |
| 20260510094545 | 44 | 193 | 0.0 | 0.0 | 0.00 | 0.00 | 0.00 | 85 | 1016.9 |
| 20260510093032 | 45 | 193 | 0.0 | 0.0 | 0.00 | 0.00 | 0.00 | 85 | 1017.0 |
| 20260510091531 | 45 | 193 | 0.0 | 1.0 | 0.00 | 0.00 | 0.00 | 85 | 1017.1 |
| 20260510090025 | 46 | 193 | 0.0 | 0.0 | 0.00 | 0.00 | 0.00 | 84 | 1017.2 |
| 20260510084524 | 46 | 193 | 0.0 | 0.0 | 0.00 | 0.00 | 0.00 | 84 | 1017.3 |
| 20260510083019 | 47 | 193 | 0.0 | 0.0 | 0.00 | 0.00 | 0.00 | 83 | 1017.1 |
| 20260510081519 | 47 | 193 | 0.0 | 0.0 | 0.00 | 0.00 | 0.00 | 83 | 1017.1 |
| 20260510080018 | 48 | 193 | 0.0 | 0.0 | 0.00 | 0.00 | 0.00 | 81 | 1017.0 |
| 20260510074512 | 48 | 193 | 0.0 | 2.0 | 0.00 | 0.00 | 0.00 | 80 | 1017.1 |
| 20260510073012 | 49 | 193 | 0.0 | 0.0 | 0.00 | 0.00 | 0.00 | 81 | 1017.0 |
| 20260510071508 | 49 | 193 | 0.0 | 0.0 | 0.00 | 0.00 | 0.00 | 79 | 1016.9 |
| 20260510070012 | 49 | 193 | 0.0 | 0.0 | 0.00 | 0.00 | 0.00 | 77 | 1016.9 |
| 20260510064504 | 50 | 193 | 0.0 | 0.0 | 0.00 | 0.00 | 0.00 | 78 | 1016.9 |
| 20260510063004 | 50 | 193 | 0.0 | 0.0 | 0.00 | 0.00 | 0.00 | 77 | 1016.7 |
| 20260510061504 | 51 | 193 | 0.0 | 3.0 | 0.00 | 0.00 | 0.00 | 74 | 1016.8 |
| 20260510060007 | 52 | 193 | 0.0 | 3.0 | 0.00 | 0.00 | 0.00 | 72 | 1016.9 |
| 20260510054503 | 53 | 192 | 0.0 | 2.0 | 0.00 | 0.00 | 0.00 | 71 | 1016.9 |
| 20260510053008 | 54 | 192 | 0.0 | 0.0 | 0.00 | 0.00 | 0.00 | 70 | 1017.0 |
| 20260510051503 | 55 | 192 | 0.0 | 0.0 | 0.00 | 0.00 | 0.00 | 69 | 1016.9 |
| 20260510050004 | 55 | 192 | 0.0 | 0.0 | 0.00 | 0.00 | 0.00 | 68 | 1016.9 |
| 20260510044504 | 56 | 192 | 0.0 | 0.0 | 0.00 | 0.00 | 0.00 | 68 | 1016.9 |
| 20260510043002 | 57 | 192 | 0.0 | 0.0 | 0.00 | 0.00 | 0.00 | 67 | 1016.8 |
| 20260510041600 | 58 | 192 | 0.0 | 0.0 | 0.00 | 0.00 | 0.00 | 66 | 1016.7 |
| 20260510040059 | 59 | 192 | 0.0 | 0.0 | 0.00 | 0.00 | 0.00 | 67 | 1016.5 |
| 20260510034600 | 61 | 192 | 0.0 | 0.0 | 0.00 | 0.00 | 0.00 | 62 | 1016.4 |
| 20260510033113 | 62 | 192 | 0.0 | 0.0 | 0.00 | 0.00 | 0.00 | 61 | 1016.3 |
| 20260510031559 | 64 | 191 | 0.0 | 0.0 | 0.00 | 0.00 | 0.00 | 61 | 1016.1 |
| 20260510030104 | 65 | 191 | 0.0 | 0.0 | 0.00 | 0.00 | 0.00 | 58 | 1016.1 |
| 20260510024607 | 67 | 191 | 0.0 | 0.0 | 0.00 | 0.00 | 0.00 | 52 | 1016.0 |
| 20260510023057 | 69 | 191 | 0.0 | 0.0 | 0.00 | 0.00 | 0.00 | 48 | 1016.0 |
| 20260510021558 | 71 | 191 | 0.0 | 1.0 | 0.00 | 0.00 | 0.00 | 46 | 1015.9 |
| 20260510020057 | 71 | 191 | 0.0 | 2.0 | 0.00 | 0.00 | 0.00 | 40 | 1016.2 |
| 20260510014553 | 73 | 174 | 0.0 | 2.0 | 0.00 | 0.00 | 0.00 | 36 | 1016.2 |
| 20260510013053 | 74 | 218 | 2.0 | 5.0 | 0.00 | 0.00 | 0.00 | 31 | 1016.4 |
| 20260510011552 | 74 | 173 | 1.0 | 5.0 | 0.00 | 0.00 | 0.00 | 32 | 1016.5 |
| 20260510010048 | 73 | 208 | 0.0 | 8.0 | 0.00 | 0.00 | 0.00 | 32 | 1016.7 |
| 20260510004548 | 74 | 218 | 2.0 | 8.0 | 0.00 | 0.00 | 0.00 | 31 | 1016.7 |
| 20260510003045 | 75 | 214 | 0.0 | 8.0 | 0.00 | 0.00 | 0.00 | 30 | 1016.8 |
| 20260510001545 | 75 | 216 | 2.0 | 7.0 | 0.00 | 0.00 | 0.00 | 30 | 1016.8 |
| 20260510000049 | 74 | 128 | 0.0 | 8.0 | 0.00 | 0.00 | 0.00 | 31 | 1016.8 |
| 20260509234543 | 74 | 210 | 1.0 | 4.0 | 0.00 | 0.00 | 0.00 | 30 | 1016.8 |
| 20260509233041 | 74 | 208 | 2.0 | 4.0 | 0.00 | 0.00 | 0.00 | 30 | 1017.1 |
| 20260509231543 | 75 | 210 | 1.0 | 8.0 | 0.00 | 0.00 | 0.00 | 28 | 1017.1 |
| 20260509230037 | 76 | 221 | 1.0 | 7.0 | 0.00 | 0.00 | 0.00 | 27 | 1017.3 |
| 20260509224533 | 75 | 191 | 1.0 | 6.0 | 0.00 | 0.00 | 0.00 | 27 | 1017.6 |
| 20260509223032 | 72 | 56 | 4.0 | 10.0 | 0.00 | 0.00 | 0.00 | 29 | 1017.6 |
| 20260509221530 | 74 | 336 | 2.0 | 7.0 | 0.00 | 0.00 | 0.00 | 25 | 1017.9 |
| 20260509220033 | 73 | 66 | 2.0 | 7.0 | 0.00 | 0.00 | 0.00 | 28 | 1018.2 |
| 20260509214526 | 74 | 177 | 4.0 | 10.0 | 0.00 | 0.00 | 0.00 | 28 | 1018.4 |
| 20260509213031 | 73 | 55 | 1.0 | 9.0 | 0.00 | 0.00 | 0.00 | 26 | 1018.4 |
| 20260509211523 | 74 | 63 | 2.0 | 5.0 | 0.00 | 0.00 | 0.00 | 26 | 1018.7 |
| 20260509210024 | 73 | 186 | 1.0 | 5.0 | 0.00 | 0.00 | 0.00 | 27 | 1018.8 |
| 20260509204522 | 75 | 213 | 6.0 | 11.0 | 0.00 | 0.00 | 0.00 | 27 | 1018.8 |
| 20260509203019 | 74 | 212 | 0.0 | 5.0 | 0.00 | 0.00 | 0.00 | 26 | 1018.9 |
| 20260509201517 | 73 | 224 | 5.0 | 9.0 | 0.00 | 0.00 | 0.00 | 26 | 1019.0 |
| 20260509200014 | 72 | 192 | 0.0 | 4.0 | 0.00 | 0.00 | 0.00 | 28 | 1019.1 |
| 20260509194511 | 72 | 222 | 2.0 | 8.0 | 0.00 | 0.00 | 0.00 | 29 | 1019.3 |
| 20260509193011 | 71 | 242 | 1.0 | 6.0 | 0.00 | 0.00 | 0.00 | 32 | 1019.6 |
| 20260509191505 | 69 | 208 | 1.0 | 4.0 | 0.00 | 0.00 | 0.00 | 36 | 1019.6 |
| 20260509190004 | 69 | 209 | 3.0 | 7.0 | 0.00 | 0.00 | 0.00 | 35 | 1019.6 |
| 20260509184602 | 68 | 158 | 2.0 | 7.0 | 0.00 | 0.00 | 0.00 | 40 | 1019.7 |
| 20260509183059 | 66 | 354 | 2.0 | 5.0 | 0.00 | 0.00 | 0.00 | 39 | 1019.9 |
| 20260509181554 | 66 | 224 | 0.0 | 5.0 | 0.00 | 0.00 | 0.00 | 41 | 1020.1 |
| 20260509180049 | 64 | 204 | 1.0 | 3.0 | 0.00 | 0.00 | 0.00 | 43 | 1020.3 |
| 20260509174601 | 62 | 245 | 0.0 | 4.0 | 0.00 | 0.00 | 0.00 | 48 | 1020.5 |
| 20260509173049 | 60 | 225 | 2.0 | 7.0 | 0.00 | 0.00 | 0.00 | 49 | 1020.6 |
| 20260509171539 | 59 | 292 | 2.0 | 7.0 | 0.00 | 0.00 | 0.00 | 50 | 1020.9 |
| 20260509170037 | 58 | 64 | 3.0 | 7.0 | 0.00 | 0.00 | 0.00 | 52 | 1021.0 |
| 20260509164533 | 57 | 127 | 3.0 | 6.0 | 0.00 | 0.00 | 0.00 | 53 | 1021.0 |
| 20260509163037 | 55 | 77 | 3.0 | 8.0 | 0.00 | 0.00 | 0.00 | 56 | 1021.0 |
| 20260509161526 | 54 | 111 | 1.0 | 4.0 | 0.00 | 0.00 | 0.00 | 62 | 1021.1 |
| 20260509160023 | 53 | 120 | 1.0 | 4.0 | 0.00 | 0.00 | 0.00 | 66 | 1021.3 |
| 20260509154519 | 52 | 54 | 2.0 | 9.0 | 0.00 | 0.00 | 0.00 | 64 | 1021.6 |
| 20260509153022 | 51 | 104 | 3.0 | 9.0 | 0.00 | 0.00 | 0.00 | 69 | 1021.8 |
| 20260509151518 | 49 | 143 | 1.0 | 4.0 | 0.00 | 0.00 | 0.00 | 72 | 1022.0 |
| 20260509150019 | 46 | 147 | 1.0 | 4.0 | 0.00 | 0.00 | 0.00 | 83 | 1022.1 |
| 20260509144523 | 43 | 151 | 1.0 | 3.0 | 0.00 | 0.00 | 0.00 | 87 | 1022.1 |
| 20260509143015 | 41 | 152 | 0.0 | 1.0 | 0.00 | 0.00 | 0.00 | 87 | 1022.0 |
| 20260509141514 | 41 | 152 | 0.0 | 0.0 | 0.00 | 0.00 | 0.00 | 87 | 1021.9 |
| 20260509140014 | 41 | 152 | 0.0 | 2.0 | 0.00 | 0.00 | 0.00 | 87 | 1021.9 |
| 20260509134511 | 41 | 152 | 0.0 | 1.0 | 0.00 | 0.00 | 0.00 | 86 | 1021.8 |
| 20260509133008 | 41 | 152 | 0.0 | 1.0 | 0.00 | 0.00 | 0.00 | 86 | 1021.6 |
| 20260509131510 | 41 | 152 | 0.0 | 2.0 | 0.00 | 0.00 | 0.00 | 84 | 1021.5 |
| 20260509130009 | 42 | 152 | 0.0 | 2.0 | 0.00 | 0.00 | 0.00 | 83 | 1021.2 |
| 20260509124501 | 42 | 151 | 0.0 | 2.0 | 0.00 | 0.00 | 0.00 | 82 | 1021.2 |
| 20260509123058 | 43 | 149 | 0.0 | 3.0 | 0.00 | 0.00 | 0.00 | 81 | 1021.0 |
| 20260509121616 | 44 | 127 | 0.0 | 4.0 | 0.00 | 0.00 | 0.00 | 78 | 1021.1 |
| 20260509120052 | 45 | 67 | 1.0 | 4.0 | 0.00 | 0.00 | 0.00 | 77 | 1021.1 |
| 20260509114558 | 46 | 65 | 1.0 | 8.0 | 0.00 | 0.00 | 0.00 | 74 | 1021.1 |
| 20260509113057 | 46 | 145 | 1.0 | 3.0 | 0.00 | 0.00 | 0.00 | 73 | 1021.2 |
| 20260509111552 | 46 | 145 | 2.0 | 4.0 | 0.00 | 0.00 | 0.00 | 73 | 1021.1 |
| 20260509110050 | 47 | 149 | 0.0 | 3.0 | 0.00 | 0.00 | 0.00 | 73 | 1021.2 |
| 20260509104551 | 47 | 134 | 1.0 | 6.0 | 0.00 | 0.00 | 0.00 | 73 | 1021.2 |